Perry, FL

10:43 PM EDT on September 25, 2017 (GMT -0400)
Perry

Weather History for K40J - December, 2012

Change the Weather History Date:

Monday, December 24, 2012

  Actual Average (KVLD) Record (KVLD)
Temperature  
Mean Temperature 56 °F -  
Max Temperature 66 °F 59 °F 81 °F (2015)
Min Temperature 45 °F 36 °F 28 °F (1999)
Degree Days  
Heating Degree Days 10    
Growing Degree Days 6 (Base 50)    
Moisture  
Dew Point 50 °F    
Average Humidity 76    
Maximum Humidity 90    
Minimum Humidity 63    
Precipitation  
Precipitation 0.01 in - - ()
Sea Level Pressure  
Sea Level Pressure 30.02 in    
Wind  
Wind Speed 5 mph (SSE)    
Max Wind Speed 17 mph    
Max Gust Speed 24 mph    
Averages and records for this station are not official NWS values.
T = Trace of Precipitation, MM = Missing Value Source: NWS Daily Summary

Daily Weather History Graph

Daily Weather History Graph

Search for Another Location

Airport or City:

Trip Planner

Search our weather history database for the weather conditions in past years. The results will help you decide how hot, cold, wet, or windy it might be!

Date:

Astronomy

Dec. 24, 2012 Rise Set
Actual Time 7:27 AM EST 5:40 PM EST
Civil Twilight 7:01 AM EST 6:07 PM EST
Nautical Twilight 6:31 AM EST 6:36 PM EST
Astronomical Twilight 6:02 AM EST 7:06 PM EST
Moon 3:02 PM EST (12/24) 4:10 AM EST (12/24)
Length of Visible Light 11h 05m
Length of Day
10h 12m
Waxing Gibbous, 88% of the Moon is Illuminated
Dec 24
Waxing Gibbous
Dec 28
Full
Jan 4
Last Quarter
Jan 11
New
Jan 18
First Quarter

Hourly Weather History & Observations

Time (EST) Temp. Windchill Dew Point Humidity Pressure Visibility Wind Dir Wind Speed Gust Speed Precip Events Conditions
12:53 AM 45.0 °F - 39.9 °F 82% 30.13 in - Calm Calm - N/A   Unknown
1:53 AM 48.0 °F - 39.0 °F 71% 30.13 in - Calm Calm - N/A   Unknown
2:53 AM 46.0 °F 44.8 °F 39.9 °F 79% 30.11 in - ESE 3.5 mph - N/A   Unknown
3:53 AM 46.9 °F - 39.0 °F 74% 30.10 in - SE 4.6 mph - N/A   Unknown
4:53 AM 46.9 °F - 39.9 °F 77% 30.08 in - ESE 5.8 mph - N/A   Unknown
5:53 AM 45.0 °F 42.6 °F 39.0 °F 80% 30.06 in - ESE 4.6 mph - N/A   Unknown
6:53 AM 46.0 °F 43.1 °F 39.9 °F 79% 30.07 in - SE 5.8 mph - N/A   Unknown
7:53 AM 48.9 °F - 42.1 °F 77% 30.06 in - SE 6.9 mph - N/A   Unknown
8:53 AM 53.1 °F - 45.0 °F 74% 30.05 in - SE 8.1 mph - N/A   Unknown
9:53 AM 57.0 °F - 48.0 °F 72% 30.08 in - South 5.8 mph - N/A   Unknown
10:53 AM 60.1 °F - 50.0 °F 69% 30.06 in - SSE 8.1 mph - N/A   Unknown
11:53 AM 63.0 °F - 53.1 °F 70% 30.03 in - South 10.4 mph - 0.01 in   Unknown
12:53 PM 66.0 °F - 55.9 °F 70% 29.99 in - South 12.7 mph - N/A   Unknown
1:53 PM 66.9 °F - 57.0 °F 70% 29.97 in - SSW 16.1 mph 24.2 mph N/A   Unknown
2:53 PM 66.9 °F - 55.9 °F 68% 29.96 in - SW 17.3 mph 21.9 mph N/A   Unknown
3:53 PM 66.9 °F - 54.0 °F 63% 29.94 in - SSW 11.5 mph 19.6 mph N/A   Unknown
4:53 PM 66.0 °F - 54.0 °F 65% 29.95 in - South 6.9 mph - N/A   Unknown
5:53 PM 64.0 °F - 55.9 °F 75% 29.94 in - South 5.8 mph - N/A   Unknown
6:53 PM 64.0 °F - 57.0 °F 78% 29.96 in - South 8.1 mph - N/A   Unknown
7:53 PM 63.0 °F - 57.0 °F 81% 29.96 in - South 5.8 mph - N/A   Unknown
8:53 PM 61.0 °F - 57.0 °F 87% 29.98 in - Calm Calm - N/A   Unknown
9:53 PM 61.0 °F - 57.9 °F 90% 29.98 in - Calm Calm - N/A   Unknown
10:53 PM 61.0 °F - 57.0 °F 87% 29.98 in - SE 4.6 mph - N/A   Unknown
11:53 PM 60.1 °F - 57.0 °F 90% 29.97 in - SE 3.5 mph - N/A   Unknown